| time (UTC) | temp C | wind direction | speed KPH | gust KPH | rain 1hr cm | rain 24hr cm | rain mn cm | humidity % | barometer mb |
| 20260505075406 | 25 | 130 | 1.6 | 1.6 | 0.00 | 0.00 | 0.00 | 95 | 1015.9 |
| 20260505074903 | 25 | 192 | 0.0 | 1.6 | 0.00 | 0.00 | 0.00 | 95 | 1015.8 |
| 20260505074400 | 25 | 198 | 0.0 | 1.6 | 0.00 | 0.00 | 0.00 | 95 | 1015.8 |
| 20260505073858 | 25 | 204 | 0.0 | 1.6 | 0.00 | 0.00 | 0.00 | 95 | 1015.7 |
| 20260505073355 | 25 | 177 | 0.0 | 0.0 | 0.00 | 0.00 | 0.00 | 95 | 1015.9 |
| 20260505072852 | 25 | 130 | 1.6 | 1.6 | 0.00 | 0.00 | 0.00 | 94 | 1015.9 |
| 20260505072348 | 25 | 112 | 1.6 | 3.2 | 0.00 | 0.00 | 0.00 | 94 | 1015.9 |
| 20260505071845 | 25 | 73 | 0.0 | 0.0 | 0.00 | 0.00 | 0.00 | 94 | 1015.9 |
| 20260505071341 | 25 | 68 | 1.6 | 1.6 | 0.00 | 0.00 | 0.00 | 93 | 1015.8 |
| 20260505070839 | 25 | 76 | 1.6 | 1.6 | 0.00 | 0.00 | 0.00 | 94 | 1015.8 |
| 20260505070335 | 25 | 79 | 1.6 | 1.6 | 0.00 | 0.00 | 0.00 | 93 | 1015.9 |
| 20260505065831 | 25 | 89 | 1.6 | 1.6 | 0.00 | 0.00 | 0.00 | 93 | 1015.9 |
| 20260505065328 | 25 | 117 | 1.6 | 3.2 | 0.00 | 0.00 | 0.00 | 93 | 1015.9 |
| 20260505064825 | 25 | 223 | 1.6 | 1.6 | 0.00 | 0.00 | 0.00 | 93 | 1015.8 |
| 20260505064322 | 25 | 183 | 3.2 | 3.2 | 0.00 | 0.00 | 0.00 | 93 | 1016.1 |
| 20260505063820 | 25 | 210 | 0.0 | 1.6 | 0.00 | 0.00 | 0.00 | 93 | 1016.0 |
| 20260505063315 | 25 | 101 | 0.0 | 1.6 | 0.00 | 0.00 | 0.00 | 93 | 1016.0 |
| 20260505062812 | 25 | 115 | 1.6 | 1.6 | 0.00 | 0.00 | 0.00 | 93 | 1015.9 |
| 20260505062310 | 25 | 193 | 1.6 | 1.6 | 0.00 | 0.00 | 0.00 | 93 | 1016.1 |
| 20260505061806 | 25 | 200 | 0.0 | 1.6 | 0.00 | 0.00 | 0.00 | 93 | 1015.9 |
| 20260505061305 | 25 | 201 | 0.0 | 0.0 | 0.00 | 0.00 | 0.00 | 93 | 1016.0 |
| 20260505060802 | 25 | 191 | 1.6 | 1.6 | 0.00 | 0.00 | 0.00 | 93 | 1016.0 |
| 20260505060259 | 25 | 141 | 0.0 | 1.6 | 0.00 | 0.00 | 0.00 | 92 | 1016.2 |
| 20260505055754 | 25 | 121 | 1.6 | 1.6 | 0.00 | 0.00 | 0.00 | 92 | 1016.3 |
| 20260505055250 | 25 | 73 | 0.0 | 1.6 | 0.00 | 0.00 | 0.00 | 92 | 1016.3 |
| 20260505054748 | 25 | 95 | 0.0 | 1.6 | 0.00 | 0.00 | 0.00 | 92 | 1016.2 |
| 20260505054245 | 25 | 131 | 3.2 | 3.2 | 0.00 | 0.00 | 0.00 | 92 | 1016.3 |
| 20260505053744 | 25 | 134 | 1.6 | 1.6 | 0.00 | 0.00 | 0.00 | 91 | 1016.4 |
| 20260505053240 | 25 | 205 | 1.6 | 1.6 | 0.00 | 0.00 | 0.00 | 91 | 1016.3 |
| 20260505052737 | 25 | 210 | 1.6 | 1.6 | 0.00 | 0.00 | 0.00 | 91 | 1016.5 |
| 20260505052234 | 25 | 162 | 1.6 | 1.6 | 0.00 | 0.00 | 0.00 | 91 | 1016.6 |
| 20260505051731 | 25 | 212 | 1.6 | 3.2 | 0.00 | 0.00 | 0.00 | 91 | 1016.6 |
| 20260505051229 | 25 | 213 | 1.6 | 3.2 | 0.00 | 0.00 | 0.00 | 91 | 1016.7 |
| 20260505050727 | 25 | 214 | 1.6 | 1.6 | 0.00 | 0.00 | 0.00 | 92 | 1016.7 |
| 20260505050225 | 25 | 205 | 1.6 | 1.6 | 0.00 | 0.00 | 0.00 | 92 | 1016.7 |
| 20260505041654 | 26 | 190 | 0.0 | 0.0 | 0.00 | 0.00 | 0.00 | 91 | 1017.1 |
| 20260505041152 | 26 | 185 | 1.6 | 1.6 | 0.00 | 0.00 | 0.00 | 91 | 1017.2 |
| 20260505040649 | 26 | 201 | 1.6 | 1.6 | 0.00 | 0.00 | 0.00 | 91 | 1017.3 |
| 20260505040146 | 26 | 209 | 0.0 | 0.0 | 0.00 | 0.00 | 0.00 | 91 | 1017.3 |
| 20260505035642 | 26 | 124 | 0.0 | 1.6 | 0.00 | 0.00 | 0.00 | 91 | 1017.4 |
| 20260505035138 | 26 | 122 | 1.6 | 1.6 | 0.00 | 0.00 | 0.00 | 91 | 1017.5 |
| 20260505034635 | 26 | 179 | 0.0 | 1.6 | 0.00 | 0.00 | 0.00 | 90 | 1017.7 |
| 20260505034132 | 26 | 179 | 1.6 | 3.2 | 0.00 | 0.00 | 0.00 | 90 | 1017.7 |
| 20260505033628 | 26 | 208 | 1.6 | 1.6 | 0.00 | 0.00 | 0.00 | 90 | 1017.7 |
| 20260505033127 | 26 | 208 | 3.2 | 3.2 | 0.00 | 0.00 | 0.00 | 90 | 1017.8 |
| 20260505032625 | 26 | 208 | 3.2 | 3.2 | 0.00 | 0.00 | 0.00 | 90 | 1017.7 |
| 20260505032121 | 26 | 219 | 1.6 | 3.2 | 0.00 | 0.00 | 0.00 | 90 | 1017.7 |
| 20260505031618 | 26 | 94 | 1.6 | 1.6 | 0.00 | 0.00 | 0.00 | 90 | 1017.8 |
| 20260505031114 | 26 | 130 | 1.6 | 3.2 | 0.00 | 0.00 | 0.00 | 90 | 1017.7 |
| 20260505030612 | 26 | 172 | 1.6 | 1.6 | 0.00 | 0.00 | 0.00 | 90 | 1017.6 |
| 20260505030107 | 26 | 174 | 1.6 | 1.6 | 0.00 | 0.00 | 0.00 | 89 | 1017.5 |
| 20260505025602 | 26 | 196 | 0.0 | 1.6 | 0.00 | 0.00 | 0.00 | 90 | 1017.6 |
| 20260505025057 | 26 | 96 | 1.6 | 1.6 | 0.00 | 0.00 | 0.00 | 90 | 1017.5 |
| 20260505024553 | 26 | 197 | 1.6 | 1.6 | 0.00 | 0.00 | 0.00 | 89 | 1017.6 |
| 20260505024051 | 26 | 194 | 1.6 | 1.6 | 0.00 | 0.00 | 0.00 | 89 | 1017.6 |
| 20260505023548 | 26 | 210 | 1.6 | 1.6 | 0.00 | 0.00 | 0.00 | 89 | 1017.7 |
| 20260505023045 | 26 | 171 | 4.8 | 4.8 | 0.00 | 0.00 | 0.00 | 89 | 1017.5 |
| 20260505022543 | 26 | 183 | 3.2 | 3.2 | 0.00 | 0.00 | 0.00 | 89 | 1017.6 |
| 20260505022040 | 26 | 177 | 1.6 | 1.6 | 0.00 | 0.00 | 0.00 | 89 | 1017.4 |
| 20260505021536 | 26 | 135 | 1.6 | 1.6 | 0.00 | 0.00 | 0.00 | 89 | 1017.5 |
| 20260505021033 | 26 | 144 | 4.8 | 4.8 | 0.00 | 0.00 | 0.00 | 88 | 1017.5 |
| 20260505020527 | 26 | 139 | 1.6 | 3.2 | 0.00 | 0.00 | 0.00 | 88 | 1017.4 |
| 20260505020024 | 27 | 176 | 1.6 | 1.6 | 0.00 | 0.00 | 0.00 | 87 | 1017.3 |
| 20260505015521 | 27 | 94 | 1.6 | 3.2 | 0.00 | 0.00 | 0.00 | 87 | 1017.4 |
| 20260505015018 | 27 | 84 | 3.2 | 3.2 | 0.00 | 0.00 | 0.00 | 87 | 1017.3 |
| 20260505014515 | 27 | 122 | 3.2 | 3.2 | 0.00 | 0.00 | 0.00 | 87 | 1017.2 |
| 20260505014013 | 27 | 132 | 1.6 | 3.2 | 0.00 | 0.00 | 0.00 | 86 | 1017.2 |
| 20260505013509 | 27 | 93 | 1.6 | 3.2 | 0.00 | 0.00 | 0.00 | 86 | 1017.1 |
| 20260505013007 | 27 | 62 | 4.8 | 4.8 | 0.00 | 0.00 | 0.00 | 86 | 1017.1 |
| 20260505012505 | 27 | 72 | 1.6 | 1.6 | 0.00 | 0.00 | 0.00 | 86 | 1017.0 |
| 20260505012001 | 27 | 188 | 3.2 | 4.8 | 0.00 | 0.00 | 0.00 | 86 | 1016.9 |
| 20260505011457 | 27 | 155 | 3.2 | 3.2 | 0.00 | 0.00 | 0.00 | 85 | 1016.9 |
| 20260505010954 | 27 | 109 | 6.4 | 8.0 | 0.00 | 0.00 | 0.00 | 85 | 1016.9 |
| 20260505010450 | 27 | 74 | 4.8 | 4.8 | 0.00 | 0.00 | 0.00 | 84 | 1016.7 |
| 20260505005946 | 27 | 154 | 4.8 | 4.8 | 0.00 | 0.00 | 0.00 | 83 | 1016.6 |
| 20260505005443 | 27 | 144 | 4.8 | 4.8 | 0.00 | 0.00 | 0.00 | 83 | 1016.6 |
| 20260505004940 | 27 | 161 | 3.2 | 4.8 | 0.00 | 0.00 | 0.00 | 83 | 1016.7 |
| 20260505004436 | 27 | 86 | 3.2 | 3.2 | 0.00 | 0.00 | 0.00 | 83 | 1016.6 |
| 20260505003934 | 27 | 128 | 4.8 | 4.8 | 0.00 | 0.00 | 0.00 | 82 | 1016.7 |
| 20260505003431 | 27 | 95 | 1.6 | 1.6 | 0.00 | 0.00 | 0.00 | 82 | 1016.6 |
| 20260505002927 | 27 | 105 | 4.8 | 4.8 | 0.00 | 0.00 | 0.00 | 82 | 1016.5 |
| 20260505002423 | 27 | 186 | 3.2 | 3.2 | 0.00 | 0.00 | 0.00 | 82 | 1016.6 |
| 20260505001922 | 27 | 181 | 3.2 | 3.2 | 0.00 | 0.00 | 0.00 | 81 | 1016.5 |
| 20260505001419 | 27 | 130 | 4.8 | 4.8 | 0.00 | 0.00 | 0.00 | 81 | 1016.5 |
| 20260505000916 | 27 | 118 | 1.6 | 1.6 | 0.00 | 0.00 | 0.00 | 81 | 1016.4 |
| 20260505000414 | 28 | 162 | 3.2 | 3.2 | 0.00 | 0.00 | 0.00 | 80 | 1016.4 |
| 20260504235911 | 28 | 143 | 1.6 | 3.2 | 0.00 | 0.00 | 0.00 | 80 | 1016.3 |
| 20260504235408 | 28 | 166 | 4.8 | 4.8 | 0.00 | 0.00 | 0.00 | 80 | 1016.3 |
| 20260504234904 | 28 | 123 | 3.2 | 3.2 | 0.00 | 0.00 | 0.00 | 79 | 1016.3 |
| 20260504234402 | 28 | 80 | 8.0 | 11.3 | 0.00 | 0.00 | 0.00 | 79 | 1016.3 |
| 20260504233858 | 28 | 182 | 4.8 | 8.0 | 0.00 | 0.00 | 0.00 | 79 | 1016.4 |
| 20260504233354 | 28 | 97 | 4.8 | 4.8 | 0.00 | 0.00 | 0.00 | 79 | 1016.4 |
| 20260504232850 | 28 | 116 | 4.8 | 8.0 | 0.00 | 0.00 | 0.00 | 79 | 1016.2 |
| 20260504232348 | 28 | 143 | 4.8 | 4.8 | 0.00 | 0.00 | 0.00 | 79 | 1016.3 |
| 20260504231844 | 28 | 168 | 3.2 | 3.2 | 0.00 | 0.00 | 0.00 | 79 | 1016.1 |
| 20260504231341 | 28 | 77 | 4.8 | 8.0 | 0.00 | 0.00 | 0.00 | 79 | 1016.2 |
| 20260504230837 | 28 | 175 | 6.4 | 8.0 | 0.00 | 0.00 | 0.00 | 79 | 1016.0 |
| 20260504230335 | 28 | 122 | 1.6 | 3.2 | 0.00 | 0.00 | 0.00 | 79 | 1015.8 |
| 20260504225834 | 28 | 139 | 6.4 | 9.7 | 0.00 | 0.00 | 0.00 | 78 | 1015.9 |
| 20260504225330 | 28 | 118 | 3.2 | 4.8 | 0.00 | 0.00 | 0.00 | 78 | 1015.6 |
| 20260504224827 | 28 | 165 | 6.4 | 9.7 | 0.00 | 0.00 | 0.00 | 78 | 1015.6 |
| 20260504224324 | 28 | 110 | 6.4 | 8.0 | 0.00 | 0.00 | 0.00 | 78 | 1015.6 |
| 20260504223821 | 28 | 128 | 8.0 | 11.3 | 0.00 | 0.00 | 0.00 | 77 | 1015.6 |
| 20260504223316 | 29 | 83 | 8.0 | 9.7 | 0.00 | 0.00 | 0.00 | 77 | 1015.5 |
| 20260504222813 | 29 | 141 | 3.2 | 4.8 | 0.00 | 0.00 | 0.00 | 76 | 1015.3 |
| 20260504222310 | 29 | 144 | 9.7 | 14.5 | 0.00 | 0.00 | 0.00 | 75 | 1015.3 |
| 20260504221809 | 30 | 173 | 8.0 | 9.7 | 0.00 | 0.00 | 0.00 | 74 | 1015.2 |
| 20260504221305 | 30 | 135 | 1.6 | 3.2 | 0.00 | 0.00 | 0.00 | 74 | 1015.3 |
| 20260504220802 | 30 | 66 | 1.6 | 3.2 | 0.00 | 0.00 | 0.00 | 73 | 1015.2 |
| 20260504220258 | 30 | 104 | 9.7 | 14.5 | 0.00 | 0.00 | 0.00 | 72 | 1015.0 |
| 20260504215756 | 30 | 194 | 6.4 | 8.0 | 0.00 | 0.00 | 0.00 | 72 | 1014.8 |
| 20260504215252 | 30 | 163 | 8.0 | 12.9 | 0.00 | 0.00 | 0.00 | 71 | 1014.8 |
| 20260504214748 | 30 | 143 | 4.8 | 8.0 | 0.00 | 0.00 | 0.00 | 71 | 1014.7 |
| 20260504214245 | 31 | 161 | 8.0 | 9.7 | 0.00 | 0.00 | 0.00 | 70 | 1014.9 |
| 20260504213741 | 31 | 104 | 9.7 | 12.9 | 0.00 | 0.00 | 0.00 | 71 | 1014.7 |
| 20260504213232 | 30 | 83 | 9.7 | 12.9 | 0.00 | 0.00 | 0.00 | 71 | 1014.5 |
| 20260504212729 | 30 | 109 | 6.4 | 11.3 | 0.00 | 0.00 | 0.00 | 71 | 1014.5 |
| 20260504212225 | 31 | 122 | 9.7 | 12.9 | 0.00 | 0.00 | 0.00 | 70 | 1014.5 |
| 20260504211723 | 30 | 183 | 12.9 | 14.5 | 0.00 | 0.00 | 0.00 | 71 | 1014.3 |
| 20260504211213 | 31 | 161 | 4.8 | 9.7 | 0.00 | 0.00 | 0.00 | 70 | 1014.6 |
| 20260504210711 | 31 | 102 | 3.2 | 3.2 | 0.00 | 0.00 | 0.00 | 70 | 1014.5 |
| 20260504210208 | 31 | 101 | 16.1 | 20.9 | 0.00 | 0.00 | 0.00 | 70 | 1014.5 |
| 20260504205705 | 31 | 162 | 6.4 | 9.7 | 0.00 | 0.00 | 0.00 | 69 | 1014.2 |
| 20260504205202 | 31 | 162 | 6.4 | 9.7 | 0.00 | 0.00 | 0.00 | 69 | 1014.2 |
| 20260504204701 | 31 | 200 | 6.4 | 8.0 | 0.00 | 0.00 | 0.00 | 69 | 1014.4 |
| 20260504204159 | 31 | 95 | 8.0 | 11.3 | 0.00 | 0.00 | 0.00 | 70 | 1014.2 |
| 20260504203657 | 31 | 159 | 6.4 | 9.7 | 0.00 | 0.00 | 0.00 | 70 | 1014.2 |
| 20260504203154 | 31 | 140 | 12.9 | 20.9 | 0.00 | 0.00 | 0.00 | 69 | 1014.2 |
| 20260504202649 | 31 | 170 | 8.0 | 9.7 | 0.00 | 0.00 | 0.00 | 71 | 1014.1 |
| 20260504202146 | 31 | 166 | 4.8 | 4.8 | 0.00 | 0.00 | 0.00 | 71 | 1014.1 |
| 20260504201643 | 31 | 114 | 9.7 | 11.3 | 0.00 | 0.00 | 0.00 | 71 | 1013.9 |
| 20260504201141 | 31 | 122 | 9.7 | 12.9 | 0.00 | 0.00 | 0.00 | 70 | 1014.1 |
| 20260504200638 | 31 | 128 | 8.0 | 11.3 | 0.00 | 0.00 | 0.00 | 71 | 1014.2 |
| 20260504200134 | 31 | 168 | 8.0 | 12.9 | 0.00 | 0.00 | 0.00 | 70 | 1014.2 |
| 20260504195630 | 31 | 132 | 9.7 | 12.9 | 0.00 | 0.00 | 0.00 | 70 | 1014.3 |
| 20260504195127 | 31 | 181 | 11.3 | 16.1 | 0.00 | 0.00 | 0.00 | 69 | 1014.3 |
| 20260504194624 | 31 | 133 | 9.7 | 14.5 | 0.00 | 0.00 | 0.00 | 70 | 1014.6 |
| 20260504194120 | 31 | 142 | 14.5 | 16.1 | 0.00 | 0.00 | 0.00 | 70 | 1014.3 |
| 20260504193616 | 31 | 180 | 11.3 | 14.5 | 0.00 | 0.00 | 0.00 | 69 | 1014.3 |
| 20260504193115 | 31 | 123 | 11.3 | 12.9 | 0.00 | 0.00 | 0.00 | 69 | 1014.3 |
| 20260504192612 | 31 | 174 | 6.4 | 8.0 | 0.00 | 0.00 | 0.00 | 69 | 1014.5 |
| 20260504192110 | 31 | 104 | 14.5 | 17.7 | 0.00 | 0.00 | 0.00 | 70 | 1014.5 |
| 20260504191609 | 32 | 150 | 11.3 | 14.5 | 0.00 | 0.00 | 0.00 | 68 | 1014.6 |
| 20260504191104 | 32 | 124 | 11.3 | 14.5 | 0.00 | 0.00 | 0.00 | 68 | 1014.6 |
| 20260504190600 | 32 | 99 | 8.0 | 9.7 | 0.00 | 0.00 | 0.00 | 66 | 1014.5 |
| 20260504190056 | 32 | 116 | 6.4 | 8.0 | 0.00 | 0.00 | 0.00 | 65 | 1014.5 |
| 20260504185554 | 32 | 107 | 8.0 | 11.3 | 0.00 | 0.00 | 0.00 | 65 | 1014.4 |
| 20260504185050 | 32 | 151 | 8.0 | 11.3 | 0.00 | 0.00 | 0.00 | 65 | 1014.7 |
| 20260504184546 | 32 | 172 | 6.4 | 9.7 | 0.00 | 0.00 | 0.00 | 66 | 1014.8 |
| 20260504184041 | 32 | 172 | 12.9 | 16.1 | 0.00 | 0.00 | 0.00 | 66 | 1015.0 |
| 20260504183538 | 32 | 123 | 12.9 | 16.1 | 0.00 | 0.00 | 0.00 | 65 | 1015.1 |
| 20260504183037 | 32 | 104 | 14.5 | 17.7 | 0.00 | 0.00 | 0.00 | 64 | 1014.8 |
| 20260504182533 | 32 | 78 | 8.0 | 11.3 | 0.00 | 0.00 | 0.00 | 64 | 1015.1 |
| 20260504182031 | 32 | 111 | 6.4 | 8.0 | 0.00 | 0.00 | 0.00 | 65 | 1015.0 |
| 20260504181527 | 32 | 105 | 12.9 | 16.1 | 0.00 | 0.00 | 0.00 | 64 | 1015.2 |
| 20260504181026 | 32 | 111 | 4.8 | 4.8 | 0.00 | 0.00 | 0.00 | 65 | 1014.9 |
| 20260504180524 | 32 | 103 | 11.3 | 14.5 | 0.00 | 0.00 | 0.00 | 65 | 1015.1 |
| 20260504180023 | 33 | 81 | 6.4 | 9.7 | 0.00 | 0.00 | 0.00 | 63 | 1015.1 |
| 20260504175520 | 32 | 91 | 8.0 | 9.7 | 0.00 | 0.00 | 0.00 | 63 | 1015.2 |
| 20260504175017 | 32 | 183 | 8.0 | 9.7 | 0.00 | 0.00 | 0.00 | 64 | 1015.4 |
| 20260504174515 | 32 | 128 | 8.0 | 11.3 | 0.00 | 0.00 | 0.00 | 63 | 1015.5 |
| 20260504174011 | 32 | 105 | 8.0 | 12.9 | 0.00 | 0.00 | 0.00 | 62 | 1015.4 |
| 20260504173508 | 32 | 121 | 9.7 | 11.3 | 0.00 | 0.00 | 0.00 | 61 | 1015.5 |
| 20260504173006 | 32 | 178 | 9.7 | 12.9 | 0.00 | 0.00 | 0.00 | 62 | 1015.6 |
| 20260504172501 | 31 | 203 | 4.8 | 11.3 | 0.00 | 0.00 | 0.00 | 63 | 1015.7 |
| 20260504171958 | 31 | 105 | 14.5 | 16.1 | 0.00 | 0.00 | 0.00 | 64 | 1015.9 |
| 20260504171455 | 31 | 85 | 11.3 | 16.1 | 0.00 | 0.00 | 0.00 | 63 | 1015.6 |
| 20260504170952 | 31 | 148 | 8.0 | 9.7 | 0.00 | 0.00 | 0.00 | 64 | 1015.8 |
| 20260504170448 | 32 | 188 | 6.4 | 9.7 | 0.00 | 0.00 | 0.00 | 61 | 1016.0 |
| 20260504160408 | 31 | 172 | 9.7 | 14.5 | 0.00 | 0.00 | 0.00 | 60 | 1016.8 |
| 20260504150832 | 31 | 190 | 11.3 | 12.9 | 0.00 | 0.00 | 0.00 | 65 | 1017.1 |
| 20260504150328 | 31 | 143 | 6.4 | 9.7 | 0.00 | 0.00 | 0.00 | 66 | 1017.1 |
| 20260504141258 | 30 | 147 | 6.4 | 8.0 | 0.00 | 0.00 | 0.00 | 75 | 1017.1 |
| 20260504140755 | 30 | 174 | 9.7 | 11.3 | 0.00 | 0.00 | 0.00 | 74 | 1017.0 |
| 20260504140250 | 30 | 127 | 6.4 | 8.0 | 0.00 | 0.00 | 0.00 | 76 | 1017.0 |
| 20260504130720 | 28 | 148 | 16.1 | 25.7 | 0.00 | 0.00 | 0.00 | 79 | 1017.1 |
| 20260504130215 | 28 | 96 | 14.5 | 20.9 | 0.00 | 0.00 | 0.00 | 79 | 1017.3 |
| 20260504120139 | 27 | 95 | 9.7 | 12.9 | 0.00 | 0.00 | 0.00 | 85 | 1017.7 |
| 20260504110607 | 26 | 178 | 1.6 | 1.6 | 0.00 | 0.00 | 0.00 | 88 | 1017.2 |
| 20260504100528 | 24 | 207 | 0.0 | 0.0 | 0.00 | 0.00 | 0.00 | 94 | 1016.9 |
| 20260504081921 | 24 | 217 | 1.6 | 1.6 | 0.00 | 0.00 | 0.00 | 94 | 1016.0 |
| 20260504081418 | 24 | 230 | 1.6 | 1.6 | 0.00 | 0.00 | 0.00 | 94 | 1016.0 |
| 20260504080914 | 24 | 166 | 1.6 | 1.6 | 0.00 | 0.00 | 0.00 | 94 | 1016.1 |
| 20260504080411 | 24 | 200 | 1.6 | 1.6 | 0.00 | 0.00 | 0.00 | 94 | 1016.0 |